[[{"header":{"parameterUnit":"m.s-1","parameterCategory":1,"la1":30.2991,"la2":30.254,"lo1":-89.0895,"lo2":-89.0444,"dy":0.0017,"dx":0.0017,"nx":28,"ny":28,"refTime":"2024-04-04T21:00:00:Z","depth":0,"parameterNumber":2,"parameterNumberName":"U-component_of_WINDS"},"data":[0,0,0,0,0,0,0,0,0,0,0,0,0,0,0,0,0,0,0,0,0,0,0,0,0,0,0,0,0,0,0,0,0,0,0,0,0,0,0,0,0,0,0,0,0,0,0,0,0,0,0,0,0,0,0,0,0,0,-4.522,-4.5221,0,-4.5292,-4.5293,-4.5294,-4.518,-4.5176,-4.5172,-4.5168,-4.5242,-4.5247,-4.5253,0,0,0,0,0,0,0,0,0,0,0,0,0,-4.4982,-4.4987,-4.522,-4.5221,-4.5222,-4.5292,-4.5293,-4.5294,-4.5181,-4.5176,-4.5171,-4.5167,-4.524,-4.5247,-4.5254,0,0,0,0,0,0,0,0,0,0,0,0,0,-4.5073,-4.4989,-4.522,-4.5174,-4.517,-4.5292,-4.5293,-4.5294,-4.5182,-4.5176,-4.517,-4.5164,-4.5238,-4.5246,-4.5254,-4.5425,0,0,-4.528,-4.5284,0,0,0,0,0,0,0,0,-4.5068,-4.5082,-4.518,-4.5177,-4.5173,-4.5221,-4.5236,-4.5338,-4.5183,-4.5177,-4.5168,-4.5161,-4.524,-4.5248,-4.5274,-4.5428,-4.5431,-4.5281,-4.5286,-4.529,-4.5292,0,0,0,0,0,0,0,-4.5062,-4.5078,-4.5249,-4.5181,-4.5177,-4.5149,-4.5155,-4.5255,-4.5241,-4.5177,-4.5169,-4.5179,-4.5237,-4.5266,-4.5275,-4.5432,-4.5281,-4.5288,-4.5293,-4.5297,-4.5727,-4.5733,0,0,0,0,0,0,-4.5061,-4.5074,-4.5246,-4.5251,-4.5105,-4.5158,-4.5165,-4.5212,-4.5239,-4.5238,-4.5184,-4.5174,-4.5255,-4.5265,-4.5277,-4.5476,-4.529,-4.5298,-4.5302,-4.5721,-4.5728,-4.5735,0,0,0,0,0,0,-4.5057,-4.5078,-4.5243,-4.516,-4.5179,-4.5168,-4.5222,-4.5216,-4.5245,-4.5245,-4.5241,-4.5217,-4.5251,-4.5265,-4.5388,-4.5477,-4.5301,-4.5309,-4.5713,-4.5723,-4.5732,-4.5878,0,0,0,0,0,0,-4.505,-4.5077,-4.5142,-4.5162,-4.5184,-4.5354,-4.5227,-4.5222,-4.526,-4.5247,-4.5274,-4.5273,-4.5247,-4.5376,-4.5397,-4.5486,-4.5316,-4.5705,-4.5718,-4.5729,-4.5865,-4.5891,-4.5913,0,0,0,0,0,-4.5042,-4.518,-4.5146,-4.5167,-4.5265,-4.536,-4.5372,-4.5339,-4.5268,-4.5333,-4.5332,-4.5272,-4.5465,-4.539,-4.5412,-4.5505,-4.5699,-4.5714,-4.5728,-4.5854,-4.5886,-4.5913,0,0,0,0,0,0,-4.5171,-4.5182,-4.5144,-4.5293,-4.5326,-4.534,-4.5421,-4.5374,-4.5428,-4.5413,-4.537,-4.5377,-4.5509,-4.5519,-4.5436,-4.567,-4.557,-4.559,-4.5658,-4.5689,-4.5712,-4.5706,-4.5323,0,0,0,0,0,-4.5216,-4.5293,-4.5298,-4.5429,-4.5448,-4.5432,-4.5472,-4.5444,-4.5476,-4.549,-4.5498,-4.5532,-4.5599,-4.5645,-4.5707,-4.5866,-4.5869,-4.5941,-4.5965,-4.5985,-4.6002,-4.6085,-4.6116,-4.5782,-4.5782,-4.5782,0,0,-4.5311,-4.5327,-4.5378,-4.5455,-4.5478,-4.5557,-4.5445,-4.5533,-4.5591,-4.5503,-4.5619,-4.5627,-4.5661,-4.5802,-4.5865,-4.5815,-4.6095,-4.6003,-4.6019,-4.6025,-4.6103,-4.6134,-4.6162,-4.5792,-4.579,-4.5789,0,0,-4.5524,-4.5545,-4.5655,-4.568,-4.5715,-4.5703,-4.573,-4.5751,-4.5753,-4.5869,-4.5803,-4.5872,-4.599,-4.6016,-4.6045,-4.6268,-4.6214,-4.629,-4.6416,-4.6497,-4.6524,-4.6547,-4.6624,-4.6653,-4.6307,-4.6307,-4.6308,0,-4.5638,-4.5755,-4.5718,-4.5811,-4.5846,-4.577,-4.588,-4.5906,-4.596,-4.5986,-4.593,-4.6075,-4.6093,-4.6238,-4.6293,-4.632,-4.6347,-4.6286,-4.6523,-4.6546,-4.6567,-4.664,-4.6669,-4.6316,-4.6315,-4.6314,-4.6313,0,-4.5892,-4.5974,-4.6059,-4.6112,-4.6157,-4.6259,-4.6236,-4.6286,-4.6254,-4.6248,-4.6366,-4.6386,-4.6449,-4.6482,-4.6452,-4.6624,-4.6591,-4.653,-4.6428,-4.6608,-4.6676,-4.6704,-4.6329,-4.6325,-4.6323,-4.6321,0,0,-4.6187,-4.6218,-4.625,-4.6272,-4.6305,-4.6368,-4.6466,-4.6528,-4.6571,-4.6611,-4.6691,-4.6792,-4.6735,-4.6768,-4.674,-4.6812,-4.6985,-4.6741,-4.6741,-4.6784,-4.7172,-4.7216,-4.725,-4.695,-4.6955,-4.6959,-4.7168,0,-4.6397,-4.6566,-4.6535,-4.6698,-4.6773,-4.6701,-4.6786,-4.6815,-4.6813,-4.6875,-4.6871,-4.6943,-4.6863,-4.6883,-4.6951,-4.6949,-4.7062,-4.6934,-4.7022,-4.7026,-4.7014,-4.7285,-4.7333,-4.7529,-4.7195,-4.7199,-4.7203,0,-4.6665,-4.6714,-4.6886,-4.6905,-4.6935,-4.7012,-4.7066,-4.7127,-4.7158,-4.7151,-4.7188,-4.7146,-4.7242,-4.7141,-4.7272,-4.7186,-4.722,-4.7225,-4.7232,-4.7237,-4.7124,-4.7296,-4.7591,-4.762,-4.7245,-4.7241,-4.7238,0,-4.686,-4.697,-4.7086,-4.7108,-4.7134,-4.719,-4.7203,-4.7229,-4.7268,-4.7315,-4.734,-4.7398,-4.743,-4.7475,-4.745,-4.7379,-4.7585,-4.7482,-4.758,-4.7581,-4.7625,-4.7622,-4.7928,-4.7652,-4.7651,-4.7651,-4.765,0,-4.7097,-4.7204,-4.7173,-4.7245,-4.7362,-4.7325,-4.7442,-4.7447,-4.7471,-4.7541,-4.7483,-4.755,-4.7514,-4.7578,-4.7559,-4.7669,-4.7685,-4.768,-4.7674,-4.7684,-4.7685,-4.7705,-4.769,-4.7658,-4.7657,-4.7655,-4.7654,0,-4.7335,-4.7319,-4.744,-4.7455,-4.7461,-4.7547,-4.7559,-4.7625,-4.7618,-4.7708,-4.7727,-4.7715,-4.7788,-4.7768,-4.7847,-4.7834,-4.7972,-4.7949,-4.7962,-4.7955,-4.8054,-4.8044,-4.8381,-4.8422,-4.8122,-4.8125,-4.8127,0,-4.7486,-4.7566,-4.759,-4.7633,-4.7651,-4.7721,-4.776,-4.7727,-4.7771,-4.7812,-4.7872,-4.794,-4.7991,-4.811,-4.8109,-4.8168,-4.8145,-4.8259,-4.8153,-4.8161,-4.8144,-4.8138,-4.8145,-4.8279,-4.8283,-4.8286,-4.8288,0,-4.7755,-4.7743,-4.7802,-4.7858,-4.7907,-4.795,-4.7987,-4.8026,-4.7996,-4.8047,-4.812,-4.8161,-4.824,-4.8307,-4.8362,-4.8375,-4.8326,-4.8322,-4.8347,-4.8357,-4.836,-4.8357,-4.8016,-4.8313,-4.8311,-4.8309,-4.8308,-4.8307,-4.7951,-4.8019,-4.8046,-4.8113,-4.8138,-4.8174,-4.8236,-4.8237,-4.8298,-4.836,-4.8337,-4.8421,-4.8448,-4.8516,-4.8536,-4.8601,-4.8557,-4.8595,-4.8603,-4.8613,-4.8624,-4.8352,-4.8611,-4.861,-4.8609,-4.8609,-4.8608,0,-4.8215,-4.8229,-4.8292,-4.8346,-4.8399,-4.8349,-4.8388,-4.8435,-4.8509,-4.854,-4.8592,-4.8675,-4.874,-4.8743,-4.8803,-4.8854,-4.8833,-4.8871,-4.8865,-4.8869,-4.8661,-4.8631,-4.8886,-4.8886,-4.8886,-4.8886,-4.8886,-4.8886,-4.8358,-4.8469,-4.846,-4.8582,-4.8595,-4.8676,-4.8702,-4.8735,-4.8759,-4.8854,-4.8908,-4.891,-4.8929,-4.899,-4.9047,-4.9046,-4.907,-4.9116,-4.9106,-4.8911,-4.8884,-4.8857,-4.8829,-4.9122,-4.9122,-4.9308,-4.931,-4.9311]},{"header":{"parameterUnit":"m.s-1","parameterCategory":1,"la1":30.2991,"la2":30.254,"lo1":-89.0895,"lo2":-89.0444,"dy":0.0017,"dx":0.0017,"nx":28,"ny":28,"refTime":"2024-04-04T21:00:00:Z","depth":0,"parameterNumber":3,"parameterNumberName":"V-component_of_WINDS"},"data":[0,0,0,0,0,0,0,0,0,0,0,0,0,0,0,0,0,0,0,0,0,0,0,0,0,0,0,0,0,0,0,0,0,0,0,0,0,0,0,0,0,0,0,0,0,0,0,0,0,0,0,0,0,0,0,0,0,0,-1.4415,-1.4415,0,-1.4427,-1.4427,-1.4427,-1.4418,-1.4417,-1.4417,-1.4416,-1.4428,-1.4429,-1.443,0,0,0,0,0,0,0,0,0,0,0,0,0,-1.4382,-1.4383,-1.4415,-1.4415,-1.4415,-1.4427,-1.4427,-1.4427,-1.4418,-1.4417,-1.4417,-1.4416,-1.4428,-1.4429,-1.443,0,0,0,0,0,0,0,0,0,0,0,0,0,-1.4396,-1.4383,-1.4415,-1.4412,-1.4412,-1.4427,-1.4427,-1.4427,-1.4418,-1.4417,-1.4417,-1.4416,-1.4428,-1.4429,-1.443,-1.4448,0,0,-1.4433,-1.4433,0,0,0,0,0,0,0,0,-1.4395,-1.4397,-1.4412,-1.4412,-1.4412,-1.442,-1.442,-1.4434,-1.4418,-1.4416,-1.4416,-1.4416,-1.4426,-1.4427,-1.4431,-1.4449,-1.4449,-1.4433,-1.4434,-1.4434,-1.4434,0,0,0,0,0,0,0,-1.4394,-1.4396,-1.442,-1.4413,-1.4412,-1.4409,-1.4411,-1.4422,-1.4424,-1.4416,-1.4415,-1.4417,-1.4426,-1.443,-1.4431,-1.4449,-1.4433,-1.4434,-1.4434,-1.4435,-1.448,-1.4481,0,0,0,0,0,0,-1.4393,-1.4395,-1.4419,-1.442,-1.4402,-1.441,-1.4412,-1.4418,-1.4424,-1.4424,-1.4417,-1.4416,-1.4428,-1.443,-1.4431,-1.4451,-1.4434,-1.4435,-1.4436,-1.448,-1.448,-1.4481,0,0,0,0,0,0,-1.4393,-1.4396,-1.4419,-1.4408,-1.441,-1.4412,-1.4419,-1.4419,-1.4423,-1.4425,-1.4425,-1.4421,-1.4428,-1.443,-1.4443,-1.4452,-1.4435,-1.4436,-1.4479,-1.448,-1.4481,-1.4493,0,0,0,0,0,0,-1.4392,-1.4395,-1.4403,-1.4408,-1.4411,-1.4432,-1.4419,-1.4419,-1.4424,-1.4423,-1.4428,-1.4429,-1.4427,-1.4442,-1.4444,-1.4453,-1.4437,-1.4478,-1.4479,-1.448,-1.4492,-1.4494,-1.4496,0,0,0,0,0,-1.4391,-1.4407,-1.4404,-1.4407,-1.4421,-1.4432,-1.4434,-1.4432,-1.4425,-1.4432,-1.4433,-1.4429,-1.445,-1.4443,-1.4446,-1.4455,-1.4478,-1.4479,-1.448,-1.4491,-1.4494,-1.4496,0,0,0,0,0,0,-1.4404,-1.4407,-1.4404,-1.4422,-1.4427,-1.443,-1.444,-1.4436,-1.4442,-1.4441,-1.4438,-1.444,-1.4453,-1.4456,-1.4448,-1.4472,-1.4463,-1.4465,-1.447,-1.4473,-1.4475,-1.4474,-1.4438,0,0,0,0,0,-1.4409,-1.4418,-1.4421,-1.4436,-1.4439,-1.4439,-1.4444,-1.4442,-1.4446,-1.4448,-1.4451,-1.4455,-1.4462,-1.4468,-1.4475,-1.4492,-1.4492,-1.4499,-1.4501,-1.4503,-1.4505,-1.4512,-1.4514,-1.4485,-1.4485,-1.4485,0,0,-1.4419,-1.4422,-1.4428,-1.4439,-1.4442,-1.4451,-1.444,-1.4451,-1.4457,-1.445,-1.4463,-1.4464,-1.4469,-1.4483,-1.449,-1.4486,-1.4513,-1.4505,-1.4506,-1.4507,-1.4513,-1.4516,-1.4519,-1.4486,-1.4486,-1.4486,0,0,-1.4442,-1.4446,-1.4458,-1.4462,-1.4466,-1.4466,-1.4469,-1.4473,-1.4473,-1.4486,-1.448,-1.4487,-1.4501,-1.4503,-1.4507,-1.4528,-1.4523,-1.453,-1.4542,-1.4549,-1.4551,-1.4553,-1.4559,-1.4562,-1.4532,-1.4532,-1.4532,0,-1.4455,-1.4468,-1.4465,-1.4475,-1.4479,-1.4473,-1.4484,-1.4487,-1.4494,-1.4497,-1.4492,-1.4507,-1.451,-1.4524,-1.4529,-1.4533,-1.4535,-1.453,-1.4551,-1.4553,-1.4555,-1.456,-1.4563,-1.4533,-1.4533,-1.4533,-1.4533,0,-1.4482,-1.4491,-1.45,-1.4506,-1.4511,-1.4523,-1.452,-1.4526,-1.4523,-1.4522,-1.4534,-1.4537,-1.4543,-1.4547,-1.4544,-1.456,-1.4557,-1.4551,-1.4542,-1.4558,-1.4564,-1.4566,-1.4534,-1.4534,-1.4534,-1.4533,0,0,-1.4515,-1.4518,-1.4521,-1.4523,-1.4527,-1.4533,-1.4543,-1.4549,-1.4553,-1.4557,-1.4564,-1.4575,-1.4569,-1.4573,-1.4571,-1.4577,-1.4591,-1.457,-1.457,-1.4573,-1.4606,-1.461,-1.4613,-1.4588,-1.4588,-1.4589,-1.4606,0,-1.4537,-1.4554,-1.4551,-1.4567,-1.4574,-1.4567,-1.4575,-1.4577,-1.4577,-1.4582,-1.4582,-1.4589,-1.4581,-1.4583,-1.4589,-1.4588,-1.4598,-1.4587,-1.4594,-1.4594,-1.4592,-1.4616,-1.462,-1.4636,-1.4608,-1.4608,-1.4608,0,-1.4566,-1.4571,-1.4587,-1.4587,-1.459,-1.4598,-1.4602,-1.4608,-1.461,-1.4609,-1.4611,-1.4607,-1.4615,-1.4606,-1.4617,-1.4609,-1.4612,-1.4611,-1.4612,-1.4612,-1.4602,-1.4616,-1.4641,-1.4643,-1.4612,-1.4612,-1.4612,0,-1.4587,-1.4597,-1.4608,-1.4609,-1.4611,-1.4615,-1.4616,-1.4617,-1.4621,-1.4624,-1.4626,-1.463,-1.4632,-1.4635,-1.4632,-1.4626,-1.4642,-1.4633,-1.4641,-1.4641,-1.4645,-1.4644,-1.467,-1.4647,-1.4647,-1.4647,-1.4647,0,-1.4612,-1.4622,-1.4617,-1.4623,-1.4634,-1.4629,-1.4639,-1.4639,-1.464,-1.4645,-1.4639,-1.4644,-1.464,-1.4644,-1.4641,-1.4649,-1.4651,-1.465,-1.4649,-1.465,-1.465,-1.4651,-1.4649,-1.4648,-1.4648,-1.4648,-1.4647,0,-1.4637,-1.4634,-1.4645,-1.4644,-1.4644,-1.4652,-1.4651,-1.4656,-1.4654,-1.4661,-1.4662,-1.4659,-1.4664,-1.4661,-1.4666,-1.4664,-1.4674,-1.4672,-1.4673,-1.4672,-1.468,-1.4679,-1.4707,-1.4709,-1.4686,-1.4686,-1.4686,0,-1.4653,-1.466,-1.466,-1.4663,-1.4663,-1.4669,-1.4671,-1.4666,-1.4669,-1.467,-1.4675,-1.4679,-1.4682,-1.469,-1.4688,-1.4691,-1.4688,-1.4698,-1.4689,-1.4689,-1.4687,-1.4686,-1.4686,-1.47,-1.47,-1.47,-1.47,0,-1.4681,-1.4678,-1.4682,-1.4685,-1.4688,-1.469,-1.4692,-1.4695,-1.4689,-1.4693,-1.4697,-1.4699,-1.4703,-1.4707,-1.4709,-1.4709,-1.4703,-1.4703,-1.4705,-1.4706,-1.4706,-1.4704,-1.4677,-1.4702,-1.4702,-1.4702,-1.4702,-1.4702,-1.4701,-1.4706,-1.4706,-1.471,-1.471,-1.4711,-1.4716,-1.4714,-1.4717,-1.472,-1.4717,-1.4721,-1.4721,-1.4723,-1.4723,-1.4726,-1.4722,-1.4725,-1.4726,-1.4726,-1.4727,-1.4705,-1.4727,-1.4727,-1.4727,-1.4727,-1.4727,0,-1.4727,-1.4726,-1.473,-1.4732,-1.4734,-1.4728,-1.4729,-1.4732,-1.4736,-1.4736,-1.4738,-1.4742,-1.4745,-1.4742,-1.4744,-1.4747,-1.4745,-1.4748,-1.4747,-1.4747,-1.4731,-1.4729,-1.475,-1.475,-1.475,-1.475,-1.475,-1.475,-1.4741,-1.4749,-1.4746,-1.4754,-1.4753,-1.4757,-1.4758,-1.4758,-1.4758,-1.4762,-1.4764,-1.4762,-1.4761,-1.4762,-1.4764,-1.4763,-1.4764,-1.4768,-1.4766,-1.4751,-1.4748,-1.4746,-1.4744,-1.4768,-1.4768,-1.4781,-1.4781,-1.4782]}]]